When you browse on this site, cookies collect data to enhance your experience and personalize the content and advertising you see.
Visit our Privacy Policy to learn more. By continuing to use the site, you agree to this use of cookies and data.
  • en France
  • Liste des pays
  • À 7 jours
  • Température de l'eau
  • Carte météo
  • Widgets météo
  • user-avatar
    Se connecter

    Météo par heure à Zhilina

    Ce jour, 21 Août, Mercredi

    Heure Température Précipitation Vent Pression Humidité
    00:00 +21°C° 0 mm 1 m/s 733 mmHg 90%
    01:00 +21°C° 0 mm 1 m/s 733 mmHg 90%
    02:00 +20°C° 0.1 mm 1 m/s 733 mmHg 91%
    03:00 +20°C° 0.1 mm 1 m/s 734 mmHg 92%
    04:00 +20°C° 0.1 mm 1 m/s 734 mmHg 93%
    05:00 +20°C° 0.1 mm 1 m/s 735 mmHg 94%
    06:00 +20°C° 0.1 mm 1 m/s 735 mmHg 94%
    07:00 +21°C° 0.1 mm 1 m/s 736 mmHg 94%
    08:00 +20°C° 0 mm 2 m/s 736 mmHg 92%
    09:00 +20°C° 0 mm 2 m/s 737 mmHg 90%
    10:00 +20°C° 0 mm 2 m/s 737 mmHg 88%
    11:00 +20°C° 0 mm 3 m/s 737 mmHg 85%
    12:00 +20°C° 0 mm 3 m/s 738 mmHg 82%
    13:00 +20°C° 0 mm 3 m/s 738 mmHg 79%
    14:00 +20°C° 0 mm 3 m/s 738 mmHg 79%
    15:00 +20°C° 0 mm 3 m/s 738 mmHg 78%
    16:00 +20°C° 0 mm 3 m/s 738 mmHg 78%
    17:00 +19°C° 0 mm 3 m/s 738 mmHg 81%
    18:00 +18°C° 0 mm 3 m/s 738 mmHg 83%
    19:00 +17°C° 0 mm 3 m/s 738 mmHg 86%
    20:00 +16°C° 0 mm 2 m/s 738 mmHg 89%
    21:00 +16°C° 0 mm 2 m/s 738 mmHg 92%
    22:00 +15°C° 0 mm 2 m/s 738 mmHg 95%
    23:00 +14°C° 0 mm 2 m/s 738 mmHg 95%

    Demain, 22 Août, Jeudi

    Heure Température Précipitation Vent Pression Humidité
    00:00 +14°C° 0 mm 2 m/s 738 mmHg 95%
    01:00 +14°C° 0 mm 2 m/s 738 mmHg 96%
    02:00 +13°C° 0 mm 2 m/s 738 mmHg 96%
    03:00 +13°C° 0 mm 2 m/s 738 mmHg 96%
    04:00 +13°C° 0 mm 2 m/s 738 mmHg 96%
    05:00 +14°C° 0 mm 2 m/s 738 mmHg 91%
    06:00 +15°C° 0 mm 2 m/s 738 mmHg 86%
    07:00 +16°C° 0 mm 2 m/s 738 mmHg 82%
    08:00 +18°C° 0 mm 2 m/s 738 mmHg 75%
    09:00 +19°C° 0 mm 2 m/s 739 mmHg 68%
    10:00 +21°C° 0 mm 2 m/s 739 mmHg 60%
    11:00 +23°C° 0.1 mm 2 m/s 738 mmHg 61%
    12:00 +23°C° 0.1 mm 2 m/s 738 mmHg 62%
    13:00 +24°C° 0.1 mm 2 m/s 738 mmHg 63%
    14:00 +24°C° 0.1 mm 2 m/s 738 mmHg 64%
    15:00 +24°C° 0.1 mm 2 m/s 738 mmHg 66%
    16:00 +24°C° 0.1 mm 2 m/s 737 mmHg 68%
    17:00 +22°C° 0.5 mm 1 m/s 737 mmHg 76%
    18:00 +20°C° 0.5 mm 1 m/s 737 mmHg 84%
    19:00 +18°C° 0.5 mm 1 m/s 737 mmHg 93%
    20:00 +18°C° 0.2 mm 1 m/s 737 mmHg 93%
    21:00 +16°C° 0.2 mm 1 m/s 738 mmHg 94%
    22:00 +16°C° 0.2 mm 1 m/s 738 mmHg 95%
    23:00 +15°C° 0 mm 1 m/s 738 mmHg 95%

    Après-demain, 23 Août, Vendredi

    Heure Température Précipitation Vent Pression Humidité
    00:00 +15°C° 0 mm 1 m/s 738 mmHg 96%
    01:00 +15°C° 0 mm 1 m/s 737 mmHg 96%
    02:00 +14°C° 0 mm 1 m/s 737 mmHg 96%
    03:00 +14°C° 0 mm 1 m/s 737 mmHg 96%
    04:00 +14°C° 0 mm 1 m/s 737 mmHg 96%
    05:00 +15°C° 0 mm 1 m/s 737 mmHg 94%
    06:00 +16°C° 0 mm 1 m/s 738 mmHg 91%
    07:00 +18°C° 0 mm 1 m/s 738 mmHg 89%
    08:00 +20°C° 0 mm 1 m/s 738 mmHg 81%
    09:00 +22°C° 0 mm 1 m/s 738 mmHg 72%
    10:00 +24°C° 0 mm 2 m/s 739 mmHg 64%
    11:00 +26°C° 0 mm 2 m/s 738 mmHg 61%
    12:00 +27°C° 0 mm 2 m/s 738 mmHg 57%
    13:00 +28°C° 0 mm 2 m/s 738 mmHg 54%
    14:00 +28°C° 0 mm 2 m/s 738 mmHg 56%
    15:00 +27°C° 0 mm 2 m/s 737 mmHg 58%
    16:00 +27°C° 0 mm 2 m/s 737 mmHg 59%
    17:00 +25°C° 0 mm 2 m/s 737 mmHg 70%
    18:00 +21°C° 0 mm 2 m/s 737 mmHg 81%
    19:00 +20°C° 0 mm 1 m/s 737 mmHg 92%
    20:00 +19°C° 0 mm 1 m/s 737 mmHg 93%
    21:00 +18°C° 0 mm 1 m/s 737 mmHg 94%
    22:00 +18°C° 0 mm 1 m/s 737 mmHg 96%
    23:00 +18°C° 0 mm 1 m/s 737 mmHg 96%

    24 Août, Samedi

    Heure Température Précipitation Vent Pression Humidité
    00:00 +16°C° 0 mm 1 m/s 736 mmHg 96%
    01:00 +16°C° 0 mm 1 m/s 736 mmHg 96%
    02:00 +16°C° 0 mm 1 m/s 736 mmHg 96%
    03:00 +16°C° 0 mm 1 m/s 736 mmHg 96%
    04:00 +16°C° 0 mm 1 m/s 736 mmHg 95%
    05:00 +18°C° 0 mm 1 m/s 736 mmHg 92%
    06:00 +17°C° 0 mm 0 m/s 736 mmHg 89%
    07:00 +19°C° 0 mm 0 m/s 736 mmHg 86%
    08:00 +21°C° 0 mm 0 m/s 736 mmHg 77%
    09:00 +24°C° 0 mm 0 m/s 736 mmHg 68%
    10:00 +26°C° 0 mm 0 m/s 737 mmHg 59%
    11:00 +27°C° 0 mm 0 m/s 736 mmHg 56%
    12:00 +28°C° 0 mm 0 m/s 736 mmHg 54%
    13:00 +30°C° 0 mm 1 m/s 736 mmHg 51%
    14:00 +30°C° 0.1 mm 1 m/s 736 mmHg 53%
    15:00 +27°C° 0.1 mm 0 m/s 735 mmHg 55%
    16:00 +27°C° 0.1 mm 0 m/s 735 mmHg 57%
    17:00 +27°C° 0.2 mm 1 m/s 735 mmHg 66%
    18:00 +25°C° 0.2 mm 1 m/s 735 mmHg 75%
    19:00 +23°C° 0.2 mm 1 m/s 734 mmHg 84%
    20:00 +22°C° 0.1 mm 1 m/s 734 mmHg 86%
    21:00 +21°C° 0.1 mm 1 m/s 734 mmHg 88%
    22:00 +21°C° 0.1 mm 1 m/s 735 mmHg 91%
    23:00 +20°C° 0.1 mm 1 m/s 734 mmHg 91%

    25 Août, Dimanche

    Heure Température Précipitation Vent Pression Humidité
    00:00 +20°C° 0.1 mm 1 m/s 734 mmHg 91%
    01:00 +20°C° 0.1 mm 1 m/s 734 mmHg 91%
    02:00 +20°C° 0.6 mm 1 m/s 734 mmHg 92%
    03:00 +19°C° 0.6 mm 1 m/s 734 mmHg 92%
    04:00 +19°C° 0.6 mm 1 m/s 734 mmHg 92%
    05:00 +18°C° 0.2 mm 0 m/s 734 mmHg 91%
    06:00 +19°C° 0.2 mm 0 m/s 734 mmHg 89%
    07:00 +20°C° 0.2 mm 0 m/s 734 mmHg 87%
    08:00 +23°C° 0.4 mm 0 m/s 735 mmHg 80%
    09:00 +25°C° 0.4 mm 0 m/s 735 mmHg 73%
    10:00 +27°C° 0.4 mm 0 m/s 735 mmHg 65%
    11:00 +27°C° 1.1 mm 0 m/s 735 mmHg 64%
    12:00 +28°C° 1.1 mm 0 m/s 735 mmHg 63%
    13:00 +28°C° 1.1 mm 0 m/s 735 mmHg 62%
    14:00 +28°C° 0.1 mm 0 m/s 735 mmHg 62%
    15:00 +29°C° 0.1 mm 1 m/s 734 mmHg 62%
    16:00 +29°C° 0.1 mm 1 m/s 734 mmHg 62%
    17:00 +27°C° 0.3 mm 1 m/s 734 mmHg 69%
    18:00 +25°C° 0.3 mm 1 m/s 734 mmHg 76%
    19:00 +23°C° 0.3 mm 1 m/s 734 mmHg 83%
    20:00 +22°C° 0.3 mm 1 m/s 734 mmHg 84%
    21:00 +22°C° 0.3 mm 1 m/s 734 mmHg 86%
    22:00 +21°C° 0.3 mm 1 m/s 734 mmHg 87%
    23:00 +21°C° 0.3 mm 1 m/s 734 mmHg 88%

    26 Août, Lundi

    Heure Température Précipitation Vent Pression Humidité
    00:00 +20°C° 0.3 mm 1 m/s 734 mmHg 89%
    01:00 +20°C° 0.3 mm 1 m/s 733 mmHg 89%
    02:00 +20°C° 0.6 mm 1 m/s 733 mmHg 89%
    03:00 +18°C° 0.6 mm 0 m/s 733 mmHg 89%
    04:00 +18°C° 0.6 mm 0 m/s 733 mmHg 89%
    05:00 +20°C° 0.6 mm 1 m/s 733 mmHg 90%
    06:00 +21°C° 0.6 mm 1 m/s 734 mmHg 90%
    07:00 +21°C° 0.6 mm 1 m/s 734 mmHg 91%
    08:00 +23°C° 0.2 mm 1 m/s 734 mmHg 85%
    09:00 +23°C° 0.2 mm 0 m/s 734 mmHg 80%
    10:00 +25°C° 0.2 mm 0 m/s 735 mmHg 75%
    11:00 +26°C° 0.3 mm 0 m/s 735 mmHg 69%
    12:00 +27°C° 0.3 mm 0 m/s 735 mmHg 63%
    13:00 +28°C° 0.3 mm 0 m/s 735 mmHg 56%
    14:00 +27°C° 0.4 mm 0 m/s 734 mmHg 60%
    15:00 +29°C° 0.4 mm 1 m/s 734 mmHg 64%
    16:00 +28°C° 0.4 mm 1 m/s 734 mmHg 67%
    17:00 +26°C° 0.8 mm 1 m/s 734 mmHg 74%
    18:00 +24°C° 0.8 mm 1 m/s 734 mmHg 81%
    19:00 +22°C° 0.8 mm 1 m/s 734 mmHg 88%
    20:00 +22°C° 0.2 mm 1 m/s 734 mmHg 90%
    21:00 +21°C° 0.2 mm 1 m/s 735 mmHg 92%
    22:00 +21°C° 0.2 mm 1 m/s 735 mmHg 94%
    23:00 +20°C° 0 mm 1 m/s 735 mmHg 95%
    Voir plus